Location: Brno
(49.2000°N, 16.6330°E)
Time: 12:11:49
(UTC+02:00)

CARTOSAT-1 - Visible Passes

Search period start: 21 August 2017 00:00
Search period end: 31 August 2017 00:00
Orbit: 617 x 620 km, 97.9° (Epoch: 20 August)

Date Brightness Start Highest point End Pass type
(mag) Time Alt. Az. Time Alt. Az. Time Alt. Az.
21 Aug 5.7 21:05:16 10° E 21:07:07 13° ENE 21:08:57 10° NNE visible
21 Aug 3.4 22:42:00 69° SSE 22:42:31 87° ENE 22:46:52 10° NNW visible
22 Aug 6.2 00:19:08 11° W 00:19:13 11° W 00:20:37 10° WNW visible
22 Aug 5.4 21:21:55 14° E 21:23:40 17° ENE 21:26:29 10° NNE visible
22 Aug 3.7 22:59:03 63° WSW 22:59:17 65° WSW 23:03:37 10° NNW visible
23 Aug 5.0 21:38:58 20° E 21:40:15 23° ENE 21:43:42 10° N visible
23 Aug 4.3 23:16:07 44° W 23:16:07 44° W 23:20:16 10° NNW visible
24 Aug 4.5 21:56:01 29° E 21:56:53 32° ENE 22:00:45 10° N visible
24 Aug 5.0 23:33:09 30° W 23:33:09 30° W 23:36:49 10° NNW visible
25 Aug 4.0 22:13:04 43° E 22:13:34 45° ENE 22:17:43 10° N visible
25 Aug 5.5 23:50:12 21° W 23:50:12 21° W 23:53:12 10° NW visible
26 Aug 3.5 22:30:07 66° E 22:30:17 66° ENE 22:34:35 10° N visible
27 Aug 6.0 00:07:15 15° W 00:07:15 15° W 00:09:19 10° NW visible
27 Aug 5.6 21:10:02 12° E 21:11:34 14° ENE 21:13:43 10° NNE visible
27 Aug 3.5 22:47:11 82° NW 22:47:11 82° NW 22:51:23 10° NNW visible
28 Aug 5.2 21:27:05 17° E 21:28:07 19° ENE 21:31:08 10° NNE visible
28 Aug 4.1 23:04:14 55° WNW 23:04:14 55° WNW 23:08:06 10° NNW visible
29 Aug 4.8 21:44:09 25° ENE 21:44:44 25° ENE 21:48:17 10° N visible
29 Aug 4.8 23:21:17 37° WNW 23:21:17 37° WNW 23:24:44 10° NNW visible
30 Aug 4.4 22:01:12 35° ENE 22:01:22 35° ENE 22:05:19 10° N visible
30 Aug 5.4 23:38:20 26° WNW 23:38:20 26° WNW 23:41:14 10° NW visible
